Location: Newark
(33.2833°N, 8.3333°W)
Time: 12:45:19
(UTC+00:00)

LightSail 2 - Visible Passes

Search period start: 17 September 2019 00:00
Search period end: 27 September 2019 00:00
Orbit: 699 x 732 km, 24.0° (Epoch: 15 September)

Date Brightness Start Highest point End Pass type
(mag) Time Alt. Az. Time Alt. Az. Time Alt. Az.
18 Sep 7.4 05:46:54 10° SSW 05:49:34 14° SSE 05:52:15 10° SE visible
19 Sep 7.5 04:51:13 10° S 04:52:32 11° SSE 04:53:52 10° SE visible
20 Sep 7.0 05:36:45 10° SSW 05:40:22 20° SSE 05:44:01 10° ESE visible
21 Sep 7.1 04:41:46 15° S 04:43:18 16° SSE 04:46:26 10° SE visible
22 Sep 7.7 03:48:08 11° SE 03:48:08 11° SE 03:48:33 10° SE visible
22 Sep 6.7 05:27:09 10° SW 05:31:11 25° S 05:35:16 10° ESE visible
23 Sep 6.7 04:33:29 21° S 04:34:03 22° SSE 04:37:55 10° ESE visible
24 Sep 7.7 03:39:47 12° SE 03:39:47 12° SE 03:40:26 10° ESE visible
24 Sep 6.4 05:18:48 15° SW 05:21:57 28° S 05:26:15 10° ESE visible
25 Sep 6.5 04:25:05 26° SSE 04:25:05 26° SSE 04:29:00 10° ESE visible
26 Sep 7.8 03:31:22 11° ESE 03:31:22 11° ESE 03:31:41 10° ESE visible
26 Sep 6.4 05:10:23 20° SW 05:12:43 28° S 05:17:02 10° ESE visible
